Location: Ingoldesthorpe
(52.8667°N, 0.5167°E)
Time: 22:48:19
(UTC+00:00)

ALOS 2 - Pass Details

Date: 19 May 2025
Orbit: 630 x 632 km, 97.9° (Epoch: 12 June)

Event Time Altitude Azimuth Distance (km) Brightness Sun altitude
Exits shadow 22:19:02 16° 118° (ESE) 1,656 4.3 -14.3°
Maximum altitude 22:21:53 32° 64° (ENE) 1,101 3.9 -14.4°
Drops below altitude 10° 22:25:47 10° 2° (N) 2,027 6.3 -14.7°
Sets 22:28:09 0° 352° (N) 2,940 7.7 -14.8°
